Weather History for Andrews, NC

Change the Weather History Date:

Monday, November 25, 2013

  Actual Average (KTYS) Record (KTYS)
Temperature  
Mean Temperature 34 °F 46 °F  
Max Temperature 47 °F 57 °F 74 °F (1908)
Min Temperature 22 °F 36 °F 5 °F (1950)
Degree Days  
Heating Degree Days 30 19  
Month to date heating degree days 365  
Since 1 July heating degree days 584  
Cooling Degree Days 0 0  
Month to date cooling degree days 0  
Year to date cooling degree days 1523  
Moisture  
Dew Point 22 °F    
Average Humidity 66    
Maximum Humidity 95    
Minimum Humidity 20    
Precipitation  
Precipitation 0.00 in 0.14 in 3.17 in (1900)
Month to date precipitation 3.22  
Year to date precipitation 42.57  
Snow  
Snow 0.00 in 0.00 in - ()
Month to date snowfall 0.0  
Since 1 July snowfall 0.0  
Since 1 September snowfall 0.0  
Snow Depth -    
Sea Level Pressure  
Sea Level Pressure 30.34 in    
Wind  
Wind Speed 0 mph (WNW)    
Max Wind Speed 6 mph    
Max Gust Speed -    
Visibility 10 miles    
Events Rain    
T = Trace of Precipitation, MM = Missing Value Source: NWS Daily Summary

Daily Weather History Graph

Daily Weather History Graph

Search for Another Location

Airport:

Trip Planner

Search our weather history database for the weather conditions in past years. The results will help you decide how hot, cold, wet, or windy it might be!

Date:

Astronomy

Nov. 25, 2013 Rise Set
Actual Time 7:20 AM EST 5:24 PM EST
Civil Twilight 6:52 AM EST 5:52 PM EST
Nautical Twilight 6:21 AM EST 6:23 PM EST
Astronomical Twilight 5:51 AM EST 6:53 PM EST
Moon No Moon Rise 12:45 PM EST (11/25)
Length of Visible Light 10h 59m
Length of Day
10h 04m
Waning Gibbous, 51% of the Moon is Illuminated
Nov 25
Waning Gibbous
Nov 25
Last Quarter
Dec 2
New
Dec 9
First Quarter
Dec 17
Full

Hourly Weather History & Observations

Time (EST) Temp. Windchill Dew Point Humidity Pressure Visibility Wind Dir Wind Speed Gust Speed Precip Events Conditions
12:15 AM 24.1 °F - 19.4 °F 82% 30.43 in 10.0 mi Calm Calm - N/A   Clear
12:35 AM 23.7 °F - 18.5 °F 80% 30.43 in 10.0 mi Calm Calm - N/A   Clear
12:55 AM 23.4 °F - 19.4 °F 85% 30.43 in 10.0 mi Calm Calm - N/A   Clear
1:15 AM 23.4 °F - 18.9 °F 83% 30.43 in 10.0 mi Calm Calm - N/A   Clear
1:35 AM 22.5 °F - 18.3 °F 84% 30.43 in 10.0 mi Calm Calm - N/A   Clear
1:55 AM 22.5 °F - 18.7 °F 85% 30.43 in 10.0 mi Calm Calm - N/A   Clear
2:15 AM 23.4 °F - 19.2 °F 84% 30.43 in 10.0 mi Calm Calm - N/A   Clear
2:35 AM 23.0 °F - 19.4 °F 86% 30.42 in 10.0 mi Calm Calm - N/A   Clear
2:55 AM 22.8 °F - 20.1 °F 89% 30.43 in 10.0 mi Calm Calm - N/A   Clear
3:15 AM 23.0 °F - 20.1 °F 89% 30.42 in 10.0 mi Calm Calm - N/A   Clear
3:35 AM 23.9 °F - 20.1 °F 85% 30.42 in 10.0 mi Calm Calm - N/A   Clear
3:55 AM 23.5 °F - 20.1 °F 87% 30.43 in 10.0 mi Calm Calm - N/A   Clear
4:15 AM 23.7 °F - 20.1 °F 86% 30.43 in 10.0 mi Calm Calm - N/A   Clear
4:35 AM 23.2 °F - 19.4 °F 85% 30.42 in 10.0 mi Calm Calm - N/A   Clear
4:55 AM 23.0 °F - 20.1 °F 89% 30.42 in 10.0 mi Calm Calm - N/A   Clear
5:15 AM 23.9 °F - 19.8 °F 84% 30.42 in 10.0 mi Calm Calm - N/A   Clear
5:35 AM 23.7 °F - 20.3 °F 87% 30.41 in 10.0 mi Calm Calm - N/A   Clear
5:55 AM 23.2 °F - 20.3 °F 89% 30.41 in 10.0 mi Calm Calm - N/A   Clear
6:15 AM 23.4 °F - 20.3 °F 88% 30.40 in 10.0 mi Calm Calm - N/A   Clear
6:35 AM 23.0 °F - 19.4 °F 86% 30.41 in 10.0 mi Calm Calm - N/A   Clear
6:55 AM 23.0 °F - 20.5 °F 90% 30.42 in 10.0 mi Calm Calm - N/A   Clear
7:15 AM 22.8 °F - 20.5 °F 91% 30.42 in 10.0 mi Calm Calm - N/A   Clear
7:35 AM 23.2 °F - 20.8 °F 91% 30.42 in 10.0 mi Calm Calm - N/A   Clear
7:55 AM 24.4 °F - 21.0 °F 87% 30.42 in 10.0 mi Calm Calm - N/A   Clear
8:15 AM 25.5 °F - 21.4 °F 84% 30.43 in 10.0 mi Calm Calm - N/A   Clear
8:35 AM 26.1 °F - 21.7 °F 84% 30.42 in 10.0 mi Calm Calm - N/A   Clear
8:55 AM 26.8 °F - 21.7 °F 81% 30.42 in 10.0 mi Calm Calm - N/A   Clear
9:15 AM 27.9 °F - 21.9 °F 78% 30.43 in 10.0 mi Calm Calm - N/A   Clear
9:35 AM 29.1 °F - 21.2 °F 72% 30.43 in 10.0 mi Calm Calm - N/A   Clear
9:55 AM 31.8 °F - 20.8 °F 64% 30.41 in 10.0 mi Calm Calm - N/A   Clear
10:15 AM 32.0 °F - 19.9 °F 61% 30.39 in 10.0 mi Calm Calm - N/A   Clear
10:35 AM 36.0 °F - 19.2 °F 51% 30.40 in 10.0 mi Calm Calm - N/A   Clear
10:55 AM 37.0 °F - 17.1 °F 44% 30.40 in 10.0 mi Calm Calm - N/A   Clear
11:15 AM 37.8 °F - 16.9 °F 43% 30.40 in 10.0 mi Calm Calm - N/A   Clear
11:35 AM 38.7 °F - 14.0 °F 37% 30.39 in 10.0 mi Calm Calm - N/A   Clear
11:55 AM 40.1 °F - 15.8 °F 37% 30.37 in 10.0 mi Calm Calm - N/A   Clear
12:15 PM 40.8 °F - 15.4 °F 36% 30.35 in 10.0 mi Calm Calm - N/A   Clear
12:35 PM 42.1 °F - 17.1 °F 37% 30.34 in 10.0 mi Calm Calm - N/A   Scattered Clouds
12:55 PM 43.2 °F - 13.3 °F 30% 30.34 in 10.0 mi Calm Calm - N/A   Overcast
1:15 PM 44.6 °F - 12.2 °F 27% 30.32 in 10.0 mi Calm Calm - N/A   Overcast
1:35 PM 44.6 °F - 8.6 °F 23% 30.31 in 10.0 mi Calm Calm - N/A   Overcast
1:55 PM 45.3 °F 44.0 °F 6.3 °F 20% 30.31 in 10.0 mi West 3.5 mph - N/A   Mostly Cloudy
2:15 PM 45.5 °F - 6.3 °F 20% 30.29 in 10.0 mi Calm Calm - N/A   Scattered Clouds
2:35 PM 45.9 °F 44.6 °F 7.2 °F 21% 30.29 in 10.0 mi WNW 3.5 mph - N/A   Mostly Cloudy
2:55 PM 46.8 °F - 7.9 °F 21% 30.28 in 10.0 mi WNW 3.5 mph - N/A   Overcast
3:15 PM 47.1 °F - 9.9 °F 22% 30.28 in 10.0 mi WNW 3.5 mph - N/A   Overcast
3:35 PM 46.4 °F - 8.6 °F 22% 30.28 in 10.0 mi Calm Calm - N/A   Overcast
3:55 PM 46.4 °F - 16.3 °F 30% 30.27 in 10.0 mi Calm Calm - N/A   Overcast
4:15 PM 46.0 °F - 19.6 °F 35% 30.28 in 10.0 mi Calm Calm - N/A   Overcast
4:35 PM 45.7 °F 44.4 °F 23.0 °F 41% 30.28 in 10.0 mi West 3.5 mph - N/A   Overcast
4:55 PM 45.5 °F - 24.3 °F 43% 30.28 in 10.0 mi Calm Calm - N/A   Overcast
5:15 PM 45.0 °F - 24.1 °F 44% 30.27 in 7.0 mi Calm Calm - N/A   Overcast
5:35 PM 43.7 °F - 25.9 °F 50% 30.28 in 10.0 mi Calm Calm - N/A   Overcast
5:55 PM 42.3 °F - 28.9 °F 59% 30.27 in 10.0 mi Calm Calm - N/A   Overcast
6:15 PM 42.1 °F - 29.5 °F 61% 30.27 in 10.0 mi Calm Calm - N/A   Overcast
6:35 PM 42.8 °F - 28.9 °F 58% 30.28 in 10.0 mi Calm Calm - N/A   Overcast
6:55 PM 42.6 °F - 28.2 °F 57% 30.28 in 10.0 mi Calm Calm - N/A   Overcast
7:15 PM 42.3 °F 40.5 °F 29.7 °F 61% 30.27 in 10.0 mi NNE 3.5 mph - N/A   Light Drizzle
7:35 PM 41.4 °F - 30.9 °F 66% 30.27 in 10.0 mi Calm Calm - N/A   Overcast
7:55 PM 41.5 °F - 28.9 °F 61% 30.26 in 10.0 mi Calm Calm - N/A   Light Drizzle
8:15 PM 41.7 °F - 28.8 °F 60% 30.26 in 10.0 mi Calm Calm - N/A Rain Rain
8:35 PM 41.0 °F - 30.9 °F 67% 30.26 in 10.0 mi Calm Calm - N/A Rain Light Rain
8:55 PM 39.0 °F - 34.3 °F 83% 30.26 in 10.0 mi Calm Calm - N/A   Light Drizzle
9:15 PM 38.5 °F - 33.4 °F 82% 30.24 in 10.0 mi Calm Calm - N/A Rain Light Rain
9:35 PM 38.5 °F - 34.3 °F 85% 30.24 in 10.0 mi Calm Calm - N/A Rain Light Rain
9:55 PM 37.6 °F - 34.3 °F 88% 30.24 in 10.0 mi Calm Calm - N/A Rain Rain
10:15 PM 37.8 °F 33.3 °F 35.2 °F 91% 30.23 in 10.0 mi West 5.8 mph - N/A Rain Light Rain
10:35 PM 37.6 °F 34.0 °F 35.2 °F 91% 30.21 in 10.0 mi WNW 4.6 mph - N/A Rain Light Rain
10:55 PM 37.8 °F 35.3 °F 35.4 °F 91% 30.21 in 10.0 mi East 3.5 mph - N/A Rain Light Rain
11:15 PM 37.4 °F - 35.6 °F 93% 30.20 in 7.0 mi Calm Calm - N/A Rain Rain
11:35 PM 37.4 °F - 35.8 °F 94% 30.20 in 7.0 mi Calm Calm - N/A Rain Light Rain
11:55 PM 37.4 °F - 36.1 °F 95% 30.18 in 5.0 mi Calm Calm - N/A Rain Rain